Helicity
12 35 59 36 30 48 26 17 10 -1 64 96 97 95 104 91 115 128 157 156 134 112 136 141 137 139 156 187 173 166 174 167 157 142 141 154 172 179 182 183 178 169 175 189
18 -18 0 24 44 45 35 46 45 45 82 58 58 63 88 96 108 125 145 169 156 123 130 131 114 113 121 149 155 158 198 189 157 159 163 168 173 176 184 197 204 198 199 173
14 6 24 36 71 34 25 35 18 58 63 69 84 83 90 91 65 67 89 110 115 102 118 93 93 98 94 111 132 148 146 127 126 144 170 175 180 191 198 199 197 207 181 148
-2 -12 -9 13 8 11 58 64 60 42 33 12 6 -2 18 39 53 68 74 87 93 82 71 82 68 83 92 114 143 153 160 163 160 164 170 166 170 176 186 175 163 140 140 152
-21 -17 -9 -16 17 6 13 59 64 35 38 39 23 -1 6 30 34 39 62 67 74 83 78 42 30 36 66 98 117 125 121 130 139 162 184 193 195 170 162 159 161 147 136 124
1 -18 -26 -11 15 -2 -7 34 45 51 55 39 41 47 32 43 41 57 55 61 99 97 59 46 42 40 58 60 71 85 94 104 117 126 136 137 136 143 145 132 125 121 119 111
15 -9 -15 -2 -2 13 -35 -4 24 25 23 29 26 8 14 29 36 38 43 69 81 81 114 119 67 61 80 85 89 84 90 105 115 118 117 127 138 134 137 140 137 124 110 99
63 45 27 -5 -9 -15 -9 35 33 34 30 22 15 10 13 25 42 56 68 75 88 98 138 151 108 87 93 95 89 90 96 101 94 90 100 108 120 123 122 122 116 113 113 96
56 48 1 3 7 1 -6 -11 42 42 37 30 25 19 18 26 39 50 59 67 62 73 108 152 156 115 111 124 97 82 83 85 95 102 103 102 110 113 119 115 116 103 103 94
40 17 2 10 12 1 -5 -11 -15 7 33 30 34 27 35 36 36 43 48 62 56 65 107 139 139 148 143 134 117 112 126 126 119 113 111 117 115 109 109 108 108 112 111 96
25 15 9 5 10 13 11 -13 -20 -17 -5 13 40 32 38 43 45 51 53 52 48 57 66 95 109 124 127 137 115 86 93 94 103 116 127 124 109 99 95 97 113 119 113 115
33 49 43 33 32 12 13 8 -12 -15 -2 -3 -7 32 63 61 51 57 64 56 61 69 71 80 81 86 103 117 104 91 82 90 85 86 70 118 89 92 89 79 76 77 103 122
36 69 47 61 51 21 15 7 -1 -1 -2 7 22 35 48 54 79 87 89 80 65 57 55 64 81 90 89 84 79 83 92 99 97 99 93 83 79 97 109 111 87 81 78 84
70 100 60 50 44 35 27 20 20 21 23 37 52 74 67 75 85 98 102 78 70 54 61 58 51 87 86 70 66 74 80 95 86 89 93 95 92 91 97 105 116 124 112 95
77 47 54 72 56 46 40 43 45 38 36 52 72 92 116 126 119 106 123 122 93 78 69 58 65 82 103 84 67 63 68 77 90 94 91 90 85 77 72 80 102 133 156 146
86 78 73 64 60 62 64 68 68 65 61 61 90 111 118 128 127 124 117 135 126 116 88 81 68 56 62 69 61 67 78 92 89 81 84 87 82 68 56 62 82 104 121 131
152 85 71 65 71 82 72 78 81 85 81 82 84 95 102 103 107 102 99 97 94 83 85 67 63 71 78 86 109 76 72 81 99 89 80 77 75 69 53 59 66 80 96 110
94 100 102 97 103 92 79 74 77 75 67 64 74 89 87 90 81 77 75 75 75 73 71 82 72 68 86 109 117 93 80 72 70 74 74 76 76 76 76 77 82 79 79 87
107 126 121 111 96 85 78 67 70 74 73 67 64 70 82 89 83 76 79 78 68 66 66 71 75 88 84 88 102 93 97 84 74 74 71 74 85 84 88 91 97 103 102 96
121 124 123 108 99 85 85 80 79 80 79 86 78 75 70 70 76 75 73 61 54 59 69 65 66 68 71 60 57 77 90 95 96 93 82 68 62 67 70 76 74 74 73 76
118 122 121 110 95 95 95 102 95 81 76 83 88 82 79 77 77 77 73 71 60 49 50 42 57 59 62 60 65 77 89 98 109 114 101 72 55 42 35 39 40 42 46 49
106 112 106 105 103 90 95 105 110 104 87 81 90 98 102 85 77 81 77 87 82 44 72 78 72 62 64 66 80 79 66 56 44 41 44 39 33 28 35 44 49 46 44 42
97 101 98 95 94 77 95 107 110 111 108 101 103 104 105 99 90 95 84 75 72 58 82 91 74 66 58 86 87 60 51 38 17 11 15 17 16 24 33 35 37 44 50 52
89 94 86 81 87 103 97 80 97 101 105 102 96 103 101 93 76 90 80 52 47 58 85 88 81 74 72 105 82 65 40 18 18 15 2 -5 9 16 24 25 26 28 31 32
86 99 108 114 98 92 77 70 81 80 84 85 85 80 82 89 85 83 92 80 58 66 84 63 52 54 87 106 80 61 32 35 25 20 18 14 10 10 11 10 12 15 17 19
103 104 99 102 110 108 101 97 102 88 90 88 80 83 78 84 81 70 82 66 75 61 89 87 87 87 95 87 77 62 39 32 30 29 18 20 21 21 14 8 7 9 13 17
116 112 109 93 104 107 116 112 114 102 101 103 91 97 87 88 85 81 78 83 81 81 80 81 85 82 92 82 70 65 63 46 27 30 23 22 24 20 14 14 14 14 20 24
Wind_Speed
13 21 20 15 16 22 20 16 16 13 10 16 23 25 24 27 27 25 27 25 26 27 30 34 35 32 31 30 29 25 21 17 17 17 16 15 16 18 18 18 18 17 19 21
46 31 13 13 15 19 21 18 12 14 17 26 28 29 30 30 34 32 32 32 31 30 29 28 30 29 26 26 27 24 20 20 20 17 15 16 15 16 19 21 21 22 23 23
41 37 35 16 22 25 24 21 22 20 23 28 30 31 32 35 36 35 35 35 34 34 34 29 24 21 23 20 21 20 18 19 19 17 16 17 18 18 19 22 22 25 23 23
36 34 35 29 30 25 21 23 26 25 27 29 30 30 34 37 39 40 41 41 41 39 38 36 33 27 21 19 20 23 22 22 20 19 18 18 19 21 22 22 23 27 29 30
35 35 36 31 27 27 29 29 30 29 31 34 34 32 34 39 40 42 44 45 48 47 45 39 35 32 30 30 30 30 29 25 24 23 22 24 25 23 21 22 25 28 27 26
38 38 35 32 30 29 27 25 30 30 34 38 39 36 38 42 43 45 44 44 47 46 40 34 33 31 31 33 35 38 38 36 31 28 25 25 23 21 24 24 26 27 28 31
40 39 33 32 29 28 29 25 28 29 30 34 33 33 38 41 42 43 44 45 44 41 36 34 29 26 27 29 30 29 27 26 26 26 25 24 23 26 24 25 26 30 35 36
41 41 39 33 34 31 31 26 30 34 36 36 32 31 33 36 39 42 43 43 43 40 38 37 34 33 31 32 34 31 30 26 26 26 25 25 26 28 26 27 31 36 41 43
39 40 40 39 39 36 34 30 30 34 36 34 34 34 32 36 38 40 41 41 39 36 34 34 34 33 33 37 34 32 31 30 30 32 33 30 29 31 32 35 41 43 42 45
40 38 40 39 37 35 33 31 28 20 35 36 37 34 36 39 41 41 40 40 39 37 36 36 35 34 35 38 38 37 38 37 34 33 35 36 39 39 37 38 42 44 46 50
35 35 36 33 34 34 33 31 28 25 23 21 27 36 37 37 39 39 40 40 40 39 38 37 37 37 38 40 39 37 38 39 38 38 38 37 39 39 40 42 42 44 46 48
32 32 33 32 32 30 29 27 25 23 21 21 19 17 27 34 34 35 37 38 40 40 39 38 38 39 40 41 40 40 40 41 45 49 46 46 44 45 44 45 45 44 46 47
31 35 32 34 31 28 24 22 22 21 21 19 19 17 15 15 29 34 36 39 40 40 40 40 41 43 44 44 44 44 45 46 46 47 48 50 51 53 55 49 48 48 48 48
33 34 29 27 25 24 23 23 22 21 21 20 18 18 15 12 13 23 37 42 42 43 43 44 45 47 47 47 48 47 48 49 50 51 52 53 54 56 56 58 60 57 50 49
30 28 29 29 26 24 22 21 19 17 15 15 20 19 18 17 16 16 27 40 44 45 47 48 49 50 50 50 49 49 49 49 50 51 53 54 55 58 59 61 61 60 56 52
29 28 27 24 23 22 22 23 20 16 13 13 17 20 23 24 23 26 28 34 36 45 48 51 52 51 51 50 51 50 51 51 51 52 53 54 55 57 57 57 56 56 55 54
25 21 20 19 20 22 23 22 20 19 18 17 17 23 25 24 26 29 33 37 36 33 39 46 51 51 51 52 52 52 52 52 53 54 54 55 54 55 55 54 54 52 52 49
23 23 21 21 20 22 24 24 23 21 19 16 19 23 24 26 27 30 34 38 40 38 36 39 45 48 50 49 52 53 53 53 53 53 54 54 54 53 53 52 50 49 48 46
21 22 23 23 23 25 25 23 21 20 19 19 16 14 21 27 31 34 38 41 40 39 40 36 40 45 49 50 50 50 53 54 54 53 53 53 52 51 51 51 51 49 49 48
19 20 22 23 25 26 26 24 22 22 19 17 17 17 18 27 31 33 35 39 41 40 38 38 40 45 47 49 51 51 53 53 54 54 54 53 53 51 50 49 49 49 49 48
16 18 19 22 24 26 26 25 24 23 22 19 16 15 19 25 30 35 38 41 43 38 37 37 37 40 43 44 47 49 52 52 52 52 53 53 53 51 50 49 49 49 49 48
14 16 19 23 26 28 25 24 24 23 22 19 16 18 19 23 29 33 32 35 41 40 37 34 35 37 39 40 42 46 51 52 52 53 54 54 54 53 52 52 52 52 52 51
14 16 20 23 26 27 26 25 23 22 20 17 18 16 18 22 28 31 36 36 36 39 35 31 31 31 34 40 39 46 48 52 53 53 53 55 55 53 53 55 54 52 53 54
14 18 22 26 28 28 29 27 24 22 20 22 20 19 20 22 26 26 29 31 34 36 34 31 31 30 29 38 38 46 50 51 51 51 51 52 52 52 52 52 52 52 52 53
17 22 25 27 28 29 29 28 28 27 26 26 23 22 21 22 24 32 33 35 37 35 31 29 29 28 27 29 35 44 52 48 49 49 49 52 53 52 51 51 51 51 50 50
22 25 26 27 29 30 31 31 29 29 29 30 28 24 25 26 29 31 33 35 34 32 31 29 31 29 26 26 25 39 51 51 51 52 54 53 51 49 49 49 49 49 50 52
28 30 32 34 32 32 32 31 31 32 30 30 31 29 30 32 32 33 35 35 33 33 32 32 32 32 30 27 26 31 38 50 52 54 55 53 50 48 47 46 47 48 50 52
Wind_Direction
295 204 196 215 323 344 347 303 258 252 270 323 342 343 331 336 332 322 319 313 310 292 279 273 271 273 273 273 276 279 281 288 297 295 297 296 295 300 305 307 311 317 317 321
113 120 354 330 303 320 338 348 342 321 298 338 351 349 342 333 342 335 329 322 310 307 306 300 286 283 282 278 276 280 284 289 291 291 297 299 302 301 304 305 308 308 312 317
117 138 154 252 291 307 322 328 313 300 308 309 324 332 329 323 324 324 327 330 328 324 312 321 320 306 292 287 284 284 281 282 286 293 298 299 299 299 296 298 303 307 309 316
119 126 126 160 293 28 358 320 322 328 325 315 313 310 312 307 308 309 306 305 305 312 304 295 291 295 300 298 291 285 283 285 288 290 292 293 292 292 296 298 300 302 307 314
115 118 122 123 285 334 283 292 304 321 322 316 318 320 320 324 323 316 310 305 296 298 297 301 295 292 291 288 285 284 282 281 282 286 288 289 289 292 298 300 303 303 309 315
108 108 112 129 323 331 337 317 312 322 321 306 307 315 312 309 313 315 318 314 307 304 306 306 303 299 297 292 287 284 284 284 285 286 286 286 288 289 295 296 298 302 308 312
104 103 113 133 138 321 131 96 321 329 326 326 331 331 320 321 320 322 320 316 316 312 307 304 306 309 309 305 299 297 295 292 290 287 287 287 288 293 295 297 298 301 303 308
99 97 98 129 133 129 128 330 324 324 320 323 349 353 334 328 325 326 325 324 325 321 312 304 302 301 302 301 300 299 294 295 293 292 289 289 289 292 291 291 293 296 300 305
100 99 105 112 116 131 141 136 337 324 327 332 334 336 339 334 332 330 330 329 328 328 325 319 313 306 300 300 301 299 295 293 290 288 289 289 287 289 289 290 290 293 298 303
98 102 104 102 117 123 129 129 129 52 331 325 324 329 329 326 325 326 328 327 326 329 326 323 322 318 310 304 302 300 295 294 294 293 291 292 291 291 291 290 291 296 298 301
99 103 103 105 107 110 112 121 126 125 119 89 354 326 326 327 326 324 323 325 328 328 328 325 327 325 320 313 308 304 300 297 296 295 292 291 290 290 291 294 295 296 297 303
96 109 101 108 110 105 99 104 112 110 114 117 115 89 356 333 329 328 326 327 326 326 326 326 326 323 320 317 313 308 304 302 297 290 293 294 293 294 294 294 295 296 300 304
91 102 97 98 100 90 92 97 98 103 104 97 84 88 93 50 341 329 327 324 323 323 322 321 319 317 315 315 313 309 305 303 301 300 298 294 292 292 292 296 296 297 299 301
94 93 91 99 92 89 83 80 81 85 83 73 74 57 59 63 48 356 329 323 321 321 320 319 315 311 312 312 311 309 306 303 301 300 299 297 296 295 295 294 293 294 298 300
97 92 83 86 83 75 70 64 63 69 76 68 47 41 35 27 21 13 347 327 320 318 316 315 314 310 310 311 310 308 307 307 306 304 301 300 299 297 296 295 293 294 297 299
98 85 79 77 74 63 55 46 45 47 61 61 40 27 17 11 5 354 350 343 335 321 313 313 312 311 311 310 307 306 306 307 307 305 304 303 301 301 300 300 298 296 297 298
94 84 82 73 59 48 40 40 40 42 46 45 39 20 11 7 359 352 346 342 342 339 331 320 313 313 311 308 309 309 308 308 307 305 304 304 304 304 303 303 302 302 301 303
82 69 69 58 52 40 35 35 34 36 38 46 33 17 8 1 357 351 348 345 340 339 338 335 326 318 315 315 309 308 309 309 309 308 308 306 304 305 306 306 306 306 307 309
76 64 56 52 43 34 28 27 25 26 31 33 33 25 8 356 349 345 341 339 340 339 338 340 337 328 320 316 316 315 312 309 309 309 308 307 307 308 307 307 306 307 308 308
65 57 49 40 32 25 19 19 18 15 19 21 24 19 11 360 354 351 348 343 340 340 342 340 339 335 330 322 316 313 312 310 308 308 308 306 306 307 308 309 309 309 308 309
59 49 39 26 19 15 12 12 9 6 9 12 14 13 11 3 356 351 347 344 343 344 342 342 344 343 340 333 325 318 315 313 311 311 308 306 305 306 307 308 309 309 309 309
50 37 24 14 8 4 4 5 5 2 0 2 7 8 5 357 351 347 348 344 342 341 343 345 345 344 339 340 330 328 319 315 312 311 308 306 304 305 306 307 306 306 307 308
38 24 12 4 1 359 359 359 358 357 354 352 353 353 350 349 346 344 342 347 346 343 345 348 349 350 345 333 337 323 323 318 314 311 308 304 304 304 305 304 305 307 308 308
25 10 3 1 359 357 353 353 354 352 349 349 347 348 345 340 337 336 336 338 338 340 342 345 347 349 348 336 335 324 321 320 318 314 309 307 307 306 308 308 308 309 310 310
6 360 358 355 352 349 348 348 349 350 348 346 345 344 341 340 335 340 339 338 338 340 341 345 348 350 352 347 340 327 313 322 317 316 319 313 311 310 310 310 310 310 313 315
355 351 350 347 346 346 347 347 344 346 347 346 345 344 343 341 336 332 333 333 334 335 337 341 341 346 351 351 354 334 314 314 317 317 312 313 316 317 315 314 314 314 315 316
346 346 345 342 342 341 341 341 340 339 341 339 338 342 341 339 336 334 334 335 335 334 333 333 334 335 338 345 347 343 337 317 316 313 311 311 315 317 320 323 323 324 324 323